Track NUSAT 2 (BATATA) now! 10-day predictions NUSAT 2 (BATATA) is classified as:
1 41558U 16033C 21101.22587148 .00001981 00000-0 68045-4 0 9994 2 41558 97.4006 199.0765 0013712 106.1689 337.6406 15.31256575271439